| time (UTC) | temp C | wind direction | speed KPH | gust KPH | rain 1hr cm | rain 24hr cm | rain mn cm | humidity % | barometer mb |
| 20260903195119 | 36 | 235 | 6.4 | 14.5 | 0.00 | 0.00 | 0.00 | 47 | 1017.1 |
| 20260903194219 | 36 | 239 | 8.0 | 14.5 | 0.00 | 0.00 | 0.00 | 45 | 1016.9 |
| 20260903193340 | 36 | 242 | 6.4 | 20.9 | 0.00 | 0.00 | 0.00 | 43 | 1016.9 |
| 20260903192419 | 37 | 248 | 4.8 | 11.3 | 0.00 | 0.00 | 0.00 | 40 | 1016.7 |
| 20260903191519 | 38 | 257 | 4.8 | 11.3 | 0.00 | 0.00 | 0.00 | 36 | 1016.5 |
| 20260903190619 | 38 | 254 | 6.4 | 11.3 | 0.00 | 0.00 | 0.00 | 33 | 1016.5 |
| 20260903185740 | 39 | 237 | 4.8 | 12.9 | 0.00 | 0.00 | 0.00 | 29 | 1016.4 |
| 20260903184819 | 41 | 278 | 1.6 | 12.9 | 0.00 | 0.00 | 0.00 | 25 | 1016.3 |
| 20260903183920 | 41 | 303 | 1.6 | 3.2 | 0.00 | 0.00 | 0.00 | 24 | 1016.2 |
| 20260903183019 | 42 | 303 | 1.6 | 3.2 | 0.00 | 0.00 | 0.00 | 23 | 1016.2 |
| 20260903182119 | 42 | 303 | 1.6 | 4.8 | 0.00 | 0.00 | 0.00 | 23 | 1016.2 |
| 20260903181219 | 42 | 303 | 1.6 | 3.2 | 0.00 | 0.00 | 0.00 | 22 | 1016.2 |
| 20260903180319 | 42 | 303 | 1.6 | 4.8 | 0.00 | 0.00 | 0.00 | 21 | 1016.2 |
| 20260903175419 | 43 | 301 | 1.6 | 4.8 | 0.00 | 0.00 | 0.00 | 22 | 1016.2 |
| 20260903174519 | 43 | 301 | 3.2 | 4.8 | 0.00 | 0.00 | 0.00 | 22 | 1016.2 |
| 20260903173619 | 42 | 317 | 3.2 | 6.4 | 0.00 | 0.00 | 0.00 | 21 | 1016.2 |
| 20260903172719 | 42 | 334 | 3.2 | 6.4 | 0.00 | 0.00 | 0.00 | 22 | 1016.3 |
| 20260903171819 | 42 | 329 | 6.4 | 9.7 | 0.00 | 0.00 | 0.00 | 21 | 1016.3 |
| 20260903170919 | 42 | 352 | 4.8 | 11.3 | 0.00 | 0.00 | 0.00 | 21 | 1016.2 |
| 20260903170040 | 43 | 340 | 4.8 | 9.7 | 0.00 | 0.00 | 0.00 | 21 | 1016.3 |
| 20260903165119 | 43 | 329 | 3.2 | 9.7 | 0.00 | 0.00 | 0.00 | 22 | 1016.3 |
| 20260903164219 | 43 | 346 | 4.8 | 11.3 | 0.00 | 0.00 | 0.00 | 21 | 1016.3 |
| 20260903163319 | 42 | 326 | 6.4 | 12.9 | 0.00 | 0.00 | 0.00 | 20 | 1016.3 |
| 20260903162419 | 42 | 325 | 6.4 | 12.9 | 0.00 | 0.00 | 0.00 | 20 | 1016.4 |
| 20260903161518 | 42 | 336 | 4.8 | 12.9 | 0.00 | 0.00 | 0.00 | 21 | 1016.3 |
| 20260903160618 | 42 | 349 | 4.8 | 9.7 | 0.00 | 0.00 | 0.00 | 21 | 1016.3 |
| 20260903155718 | 42 | 352 | 6.4 | 12.9 | 0.00 | 0.00 | 0.00 | 21 | 1016.4 |
| 20260903154840 | 42 | 17 | 4.8 | 14.5 | 0.00 | 0.00 | 0.00 | 21 | 1016.5 |
| 20260903153919 | 42 | 350 | 6.4 | 12.9 | 0.00 | 0.00 | 0.00 | 23 | 1016.5 |
| 20260903153018 | 42 | 339 | 4.8 | 12.9 | 0.00 | 0.00 | 0.00 | 23 | 1016.5 |
| 20260903152119 | 42 | 331 | 4.8 | 11.3 | 0.00 | 0.00 | 0.00 | 23 | 1016.6 |
| 20260903151218 | 42 | 326 | 4.8 | 14.5 | 0.00 | 0.00 | 0.00 | 24 | 1016.6 |
| 20260903150318 | 42 | 308 | 6.4 | 11.3 | 0.00 | 0.00 | 0.00 | 27 | 1016.7 |
| 20260903145418 | 41 | 338 | 6.4 | 12.9 | 0.00 | 0.00 | 0.00 | 27 | 1016.8 |
| 20260903144518 | 42 | 32 | 6.4 | 12.9 | 0.00 | 0.00 | 0.00 | 28 | 1016.9 |
| 20260903143618 | 41 | 338 | 6.4 | 14.5 | 0.00 | 0.00 | 0.00 | 28 | 1017.1 |
| 20260903142718 | 41 | 351 | 4.8 | 16.1 | 0.00 | 0.00 | 0.00 | 27 | 1017.1 |
| 20260903141818 | 41 | 3 | 4.8 | 9.7 | 0.00 | 0.00 | 0.00 | 27 | 1017.2 |
| 20260903140918 | 41 | 286 | 4.8 | 9.7 | 0.00 | 0.00 | 0.00 | 29 | 1017.3 |
| 20260903140018 | 41 | 289 | 3.2 | 9.7 | 0.00 | 0.00 | 0.00 | 29 | 1017.3 |
| 20260903135139 | 41 | 5 | 3.2 | 8.0 | 0.00 | 0.00 | 0.00 | 29 | 1017.4 |
| 20260903134218 | 41 | 351 | 3.2 | 8.0 | 0.00 | 0.00 | 0.00 | 29 | 1017.5 |
| 20260903133318 | 41 | 26 | 4.8 | 8.0 | 0.00 | 0.00 | 0.00 | 30 | 1017.5 |
| 20260903132419 | 40 | 6 | 4.8 | 16.1 | 0.00 | 0.00 | 0.00 | 30 | 1017.5 |
| 20260903131518 | 41 | 39 | 3.2 | 12.9 | 0.00 | 0.00 | 0.00 | 30 | 1017.5 |
| 20260903130639 | 40 | 305 | 4.8 | 8.0 | 0.00 | 0.00 | 0.00 | 31 | 1017.6 |
| 20260903125718 | 40 | 15 | 3.2 | 14.5 | 0.00 | 0.00 | 0.00 | 30 | 1017.7 |
| 20260903124818 | 40 | 160 | 3.2 | 8.0 | 0.00 | 0.00 | 0.00 | 34 | 1017.7 |
| 20260903123918 | 39 | 59 | 3.2 | 11.3 | 0.00 | 0.00 | 0.00 | 34 | 1017.8 |
| 20260903123039 | 38 | 75 | 4.8 | 12.9 | 0.00 | 0.00 | 0.00 | 34 | 1017.8 |
| 20260903122118 | 38 | 32 | 4.8 | 12.9 | 0.00 | 0.00 | 0.00 | 36 | 1017.9 |
| 20260903121218 | 38 | 18 | 3.2 | 8.0 | 0.00 | 0.00 | 0.00 | 36 | 1018.2 |
| 20260903120318 | 38 | 58 | 4.8 | 12.9 | 0.00 | 0.00 | 0.00 | 36 | 1018.3 |
| 20260903115418 | 37 | 36 | 4.8 | 14.5 | 0.00 | 0.00 | 0.00 | 37 | 1018.4 |
| 20260903114518 | 37 | 64 | 4.8 | 12.9 | 0.00 | 0.00 | 0.00 | 37 | 1018.5 |
| 20260903113618 | 37 | 88 | 8.0 | 16.1 | 0.00 | 0.00 | 0.00 | 37 | 1018.7 |
| 20260903112718 | 36 | 59 | 6.4 | 16.1 | 0.00 | 0.00 | 0.00 | 39 | 1018.7 |
| 20260903111818 | 36 | 30 | 6.4 | 16.1 | 0.00 | 0.00 | 0.00 | 41 | 1018.8 |
| 20260903110919 | 35 | 20 | 6.4 | 12.9 | 0.00 | 0.00 | 0.00 | 43 | 1018.9 |
| 20260903110018 | 35 | 77 | 6.4 | 12.9 | 0.00 | 0.00 | 0.00 | 41 | 1019.0 |
| 20260903105118 | 35 | 53 | 6.4 | 11.3 | 0.00 | 0.00 | 0.00 | 44 | 1018.9 |
| 20260903104217 | 34 | 43 | 6.4 | 14.5 | 0.00 | 0.00 | 0.00 | 45 | 1019.0 |
| 20260903103318 | 33 | 38 | 6.4 | 14.5 | 0.00 | 0.00 | 0.00 | 47 | 1019.2 |
| 20260903102439 | 33 | 21 | 6.4 | 16.1 | 0.00 | 0.00 | 0.00 | 47 | 1019.2 |
| 20260903101518 | 33 | 14 | 6.4 | 14.5 | 0.00 | 0.00 | 0.00 | 48 | 1019.3 |
| 20260903100617 | 32 | 21 | 6.4 | 16.1 | 0.00 | 0.00 | 0.00 | 50 | 1019.2 |
| 20260903095738 | 31 | 32 | 6.4 | 12.9 | 0.00 | 0.00 | 0.00 | 51 | 1019.4 |
| 20260903094839 | 31 | 29 | 6.4 | 16.1 | 0.00 | 0.00 | 0.00 | 51 | 1019.4 |
| 20260903093917 | 31 | 55 | 8.0 | 14.5 | 0.00 | 0.00 | 0.00 | 51 | 1019.3 |
| 20260903093038 | 30 | 43 | 6.4 | 19.3 | 0.00 | 0.00 | 0.00 | 52 | 1019.3 |
| 20260903092117 | 30 | 55 | 6.4 | 16.1 | 0.00 | 0.00 | 0.00 | 52 | 1019.2 |
| 20260903091217 | 30 | 58 | 8.0 | 14.5 | 0.00 | 0.00 | 0.00 | 53 | 1019.2 |
| 20260903090338 | 30 | 61 | 6.4 | 16.1 | 0.00 | 0.00 | 0.00 | 54 | 1019.0 |
| 20260903085417 | 29 | 53 | 6.4 | 14.5 | 0.00 | 0.00 | 0.00 | 55 | 1019.1 |
| 20260903084517 | 28 | 41 | 9.7 | 16.1 | 0.00 | 0.00 | 0.00 | 56 | 1019.2 |
| 20260903083617 | 28 | 54 | 9.7 | 20.9 | 0.00 | 0.00 | 0.00 | 57 | 1019.0 |
| 20260903082717 | 27 | 46 | 9.7 | 16.1 | 0.00 | 0.00 | 0.00 | 57 | 1019.1 |
| 20260903081817 | 27 | 49 | 6.4 | 17.7 | 0.00 | 0.00 | 0.00 | 58 | 1019.1 |
| 20260903080917 | 27 | 46 | 8.0 | 14.5 | 0.00 | 0.00 | 0.00 | 59 | 1019.1 |
| 20260903080038 | 27 | 48 | 6.4 | 14.5 | 0.00 | 0.00 | 0.00 | 59 | 1019.1 |
| 20260903075117 | 26 | 47 | 8.0 | 16.1 | 0.00 | 0.00 | 0.00 | 59 | 1019.2 |
| 20260903074217 | 26 | 47 | 6.4 | 16.1 | 0.00 | 0.00 | 0.00 | 59 | 1019.2 |
| 20260903073338 | 26 | 50 | 4.8 | 12.9 | 0.00 | 0.00 | 0.00 | 58 | 1019.2 |
| 20260903072417 | 26 | 53 | 4.8 | 9.7 | 0.00 | 0.00 | 0.00 | 59 | 1019.1 |
| 20260903071517 | 26 | 50 | 4.8 | 11.3 | 0.00 | 0.00 | 0.00 | 59 | 1019.1 |
| 20260903070618 | 26 | 52 | 4.8 | 11.3 | 0.00 | 0.00 | 0.00 | 60 | 1018.9 |
| 20260903065717 | 25 | 46 | 6.4 | 14.5 | 0.00 | 0.00 | 0.00 | 60 | 1018.8 |
| 20260903064817 | 25 | 52 | 6.4 | 14.5 | 0.00 | 0.00 | 0.00 | 61 | 1018.8 |
| 20260903063917 | 25 | 49 | 4.8 | 16.1 | 0.00 | 0.00 | 0.00 | 61 | 1018.7 |
| 20260903063017 | 25 | 47 | 6.4 | 11.3 | 0.00 | 0.00 | 0.00 | 62 | 1018.6 |
| 20260903062117 | 25 | 37 | 6.4 | 12.9 | 0.00 | 0.00 | 0.00 | 62 | 1018.6 |
| 20260903061217 | 25 | 40 | 4.8 | 12.9 | 0.00 | 0.00 | 0.00 | 63 | 1018.5 |
| 20260903060317 | 25 | 50 | 6.4 | 11.3 | 0.00 | 0.00 | 0.00 | 64 | 1018.3 |
| 20260903055417 | 25 | 72 | 6.4 | 12.9 | 0.00 | 0.00 | 0.00 | 65 | 1018.1 |
| 20260903054517 | 25 | 48 | 6.4 | 12.9 | 0.00 | 0.00 | 0.00 | 65 | 1018.1 |
| 20260903053617 | 25 | 49 | 4.8 | 14.5 | 0.00 | 0.00 | 0.00 | 65 | 1018.0 |
| 20260903052717 | 25 | 57 | 3.2 | 8.0 | 0.00 | 0.00 | 0.00 | 67 | 1017.9 |
| 20260903051817 | 25 | 360 | 4.8 | 8.0 | 0.00 | 0.00 | 0.00 | 68 | 1017.9 |
| 20260903050918 | 25 | 23 | 4.8 | 9.7 | 0.00 | 0.00 | 0.00 | 68 | 1017.9 |
| 20260903050038 | 25 | 9 | 4.8 | 8.0 | 0.00 | 0.00 | 0.00 | 68 | 1017.8 |
| 20260903045117 | 25 | 5 | 4.8 | 8.0 | 0.00 | 0.00 | 0.00 | 68 | 1017.8 |
| 20260903044238 | 25 | 14 | 3.2 | 8.0 | 0.00 | 0.00 | 0.00 | 68 | 1017.8 |
| 20260903043317 | 25 | 11 | 3.2 | 6.4 | 0.00 | 0.00 | 0.00 | 67 | 1017.8 |
| 20260903042417 | 25 | 10 | 3.2 | 6.4 | 0.00 | 0.00 | 0.00 | 67 | 1017.9 |
| 20260903041538 | 25 | 354 | 3.2 | 6.4 | 0.00 | 0.00 | 0.00 | 67 | 1017.8 |
| 20260903040617 | 25 | 331 | 1.6 | 4.8 | 0.00 | 0.00 | 0.00 | 66 | 1017.9 |
| 20260903035717 | 26 | 331 | 3.2 | 4.8 | 0.00 | 0.00 | 0.00 | 65 | 1017.9 |
| 20260903034817 | 26 | 324 | 3.2 | 8.0 | 0.00 | 0.00 | 0.00 | 65 | 1018.0 |
| 20260903033937 | 26 | 309 | 3.2 | 6.4 | 0.00 | 0.00 | 0.00 | 64 | 1018.0 |
| 20260903033017 | 26 | 284 | 1.6 | 6.4 | 0.00 | 0.00 | 0.00 | 66 | 1017.9 |
| 20260903032116 | 26 | 265 | 1.6 | 3.2 | 0.00 | 0.00 | 0.00 | 70 | 1018.0 |
| 20260903031216 | 26 | 265 | 1.6 | 3.2 | 0.00 | 0.00 | 0.00 | 71 | 1017.9 |
| 20260903030317 | 26 | 265 | 1.6 | 3.2 | 0.00 | 0.00 | 0.00 | 71 | 1017.9 |
| 20260903025416 | 26 | 265 | 1.6 | 4.8 | 0.00 | 0.00 | 0.00 | 71 | 1018.0 |
| 20260903024516 | 26 | 265 | 1.6 | 4.8 | 0.00 | 0.00 | 0.00 | 70 | 1017.9 |
| 20260903023616 | 26 | 265 | 1.6 | 4.8 | 0.00 | 0.00 | 0.00 | 69 | 1017.9 |
| 20260903022716 | 26 | 265 | 1.6 | 3.2 | 0.00 | 0.00 | 0.00 | 69 | 1017.9 |
| 20260903021816 | 27 | 265 | 1.6 | 3.2 | 0.00 | 0.00 | 0.00 | 69 | 1018.0 |
| 20260903020937 | 27 | 265 | 1.6 | 4.8 | 0.00 | 0.00 | 0.00 | 68 | 1018.0 |
| 20260903020016 | 27 | 265 | 1.6 | 4.8 | 0.00 | 0.00 | 0.00 | 67 | 1017.9 |
| 20260903015137 | 27 | 265 | 0.0 | 3.2 | 0.00 | 0.00 | 0.00 | 67 | 1017.7 |
| 20260903014216 | 27 | 265 | 1.6 | 4.8 | 0.00 | 0.00 | 0.00 | 67 | 1017.6 |
| 20260903013337 | 27 | 265 | 1.6 | 4.8 | 0.00 | 0.00 | 0.00 | 67 | 1017.7 |
| 20260903012416 | 27 | 265 | 1.6 | 6.4 | 0.00 | 0.00 | 0.00 | 67 | 1017.7 |
| 20260903011516 | 28 | 265 | 1.6 | 6.4 | 0.00 | 0.00 | 0.00 | 66 | 1017.9 |
| 20260903010616 | 28 | 275 | 3.2 | 6.4 | 0.00 | 0.00 | 0.00 | 65 | 1017.8 |
| 20260903005716 | 28 | 292 | 0.0 | 4.8 | 0.00 | 0.00 | 0.00 | 64 | 1017.9 |
| 20260903004816 | 28 | 0 | 0.0 | 0.0 | 0.00 | 0.00 | 0.00 | 64 | 1017.8 |
| 20260903003916 | 28 | 0 | 0.0 | 0.0 | 0.00 | 0.00 | 0.00 | 63 | 1017.7 |
| 20260903003016 | 28 | 0 | 0.0 | 0.0 | 0.00 | 0.00 | 0.00 | 63 | 1017.7 |
| 20260903002116 | 29 | 292 | 0.0 | 1.6 | 0.00 | 0.00 | 0.00 | 62 | 1017.8 |
| 20260903001216 | 29 | 293 | 1.6 | 4.8 | 0.00 | 0.00 | 0.00 | 62 | 1017.9 |
| 20260903000337 | 30 | 294 | 1.6 | 3.2 | 0.00 | 0.00 | 0.00 | 61 | 1017.9 |
| 20260902235416 | 30 | 328 | 1.6 | 3.2 | 0.00 | 0.00 | 0.00 | 59 | 1017.8 |
| 20260902234516 | 30 | 350 | 1.6 | 3.2 | 0.00 | 0.00 | 0.00 | 57 | 1017.8 |
| 20260902233616 | 30 | 350 | 1.6 | 3.2 | 0.00 | 0.00 | 0.00 | 57 | 1017.9 |
| 20260902232716 | 30 | 350 | 1.6 | 3.2 | 0.00 | 0.00 | 0.00 | 56 | 1017.9 |
| 20260902231837 | 30 | 345 | 3.2 | 6.4 | 0.00 | 0.00 | 0.00 | 55 | 1017.8 |
| 20260902230916 | 31 | 325 | 1.6 | 6.4 | 0.00 | 0.00 | 0.00 | 55 | 1017.8 |
| 20260902230016 | 31 | 311 | 0.0 | 3.2 | 0.00 | 0.00 | 0.00 | 57 | 1017.9 |
| 20260902225116 | 31 | 0 | 0.0 | 0.0 | 0.00 | 0.00 | 0.00 | 57 | 1017.8 |
| 20260902224237 | 31 | 311 | 1.6 | 3.2 | 0.00 | 0.00 | 0.00 | 56 | 1017.9 |
| 20260902223316 | 31 | 309 | 1.6 | 6.4 | 0.00 | 0.00 | 0.00 | 56 | 1017.8 |
| 20260902222416 | 31 | 307 | 1.6 | 6.4 | 0.00 | 0.00 | 0.00 | 56 | 1017.9 |
| 20260902221516 | 31 | 292 | 3.2 | 6.4 | 0.00 | 0.00 | 0.00 | 56 | 1017.9 |
| 20260902220615 | 31 | 288 | 3.2 | 6.4 | 0.00 | 0.00 | 0.00 | 56 | 1017.8 |
| 20260902215716 | 31 | 294 | 1.6 | 6.4 | 0.00 | 0.00 | 0.00 | 56 | 1017.7 |
| 20260902214816 | 31 | 283 | 1.6 | 4.8 | 0.00 | 0.00 | 0.00 | 56 | 1017.8 |
| 20260902213916 | 31 | 277 | 3.2 | 4.8 | 0.00 | 0.00 | 0.00 | 56 | 1017.7 |
| 20260902213015 | 31 | 277 | 3.2 | 6.4 | 0.00 | 0.00 | 0.00 | 56 | 1017.7 |
| 20260902212136 | 31 | 275 | 3.2 | 6.4 | 0.00 | 0.00 | 0.00 | 56 | 1017.6 |
| 20260902211215 | 31 | 271 | 3.2 | 9.7 | 0.00 | 0.00 | 0.00 | 56 | 1017.7 |
| 20260902210315 | 31 | 274 | 3.2 | 6.4 | 0.00 | 0.00 | 0.00 | 56 | 1017.6 |
| 20260902205415 | 31 | 284 | 3.2 | 9.7 | 0.00 | 0.00 | 0.00 | 56 | 1017.5 |
| 20260902204515 | 31 | 258 | 4.8 | 11.3 | 0.00 | 0.00 | 0.00 | 56 | 1017.4 |
| 20260902203615 | 31 | 246 | 6.4 | 11.3 | 0.00 | 0.00 | 0.00 | 55 | 1017.4 |
| 20260902202715 | 31 | 243 | 6.4 | 12.9 | 0.00 | 0.00 | 0.00 | 55 | 1017.4 |
| 20260902201815 | 31 | 249 | 8.0 | 19.3 | 0.00 | 0.00 | 0.00 | 55 | 1017.3 |
| 20260902200936 | 31 | 237 | 6.4 | 19.3 | 0.00 | 0.00 | 0.00 | 55 | 1017.2 |
| 20260902200015 | 32 | 220 | 6.4 | 12.9 | 0.00 | 0.00 | 0.00 | 55 | 1017.1 |